COSMOS 249 DEB, 14410

Orbit data source: Space-Track

COSMOS 249 DEB, 14410 is space debris in LEO originally from a launch on Sun, 20 Oct 1968 UTC launched from the Tyuratam Missile And Space Complex (TTMTR). Debris objects in space refer to the collection of defunct objects orbiting the Earth. Examples of debris include non-operational satellites, rocket bodies, and fragments generated from explosions, collisions, or faulty payload assembly.

Loading next visibility...
Identifier
14410, 1968-091CL
Orbit
LEO
Country
Flag of CISCIS
Related business
Manufacturer
Unknown
Mission
Spacecraft
Bus & Motor
Unknown
Mass
Unknown
Launch date (UTC)
1968-10-20 (58 years ago)
Launch vehicle
Unknown
Launch site
Tyuratam Missile And Space Complex (TTMTR)
Object type
Payload
Rocket body
Debris
Shape & HBR
Unknown shape, 0.1 m
Radar Cross Section
Medium (>0.1 m² and <1 m²)

Expand to show TLE details & history
Last TLE update: 7 hours ago

TLE from 7 hours ago
0 COSMOS 249 DEB
1 14410U 68091CL  26248.28670937  .00001967  00000-0  71141-3 0  9998
2 14410  62.2031 351.7303 0300385 317.4626  69.1805 14.14220674115508
Epoch: 2026-09-05T06:52Z
TLE epoch observation values (Epoch: 2026-09-05T06:52:51.689Z)
Latitude
26.22477°
Longitude
-80.91438°
Altitude
775.621 km
Speed
7.506 km/s
True Right ascension
00h 26m 47s
True Declination
26° 05' 21"
Sunlit
Object was in full shadow at epoch
Visualization orbit readout
Latitude
Unknown
Longitude
Unknown
Altitude
Unknown
Speed
Unknown
Apparent Right ascension
Unknown
Apparent Declination
Unknown
Sunlit
N/A
Visualization observer readout
Local Sidereal Time
06:20:17
Azimuth
Unknown
Elevation
Unknown
Doppler factor
Unknown
Orbital elements
Apogee altitude
1,060.847 km
Perigee altitude
626.969 km
Semi-major axis
7,222.045 km
Eccentricity
0.03004
Inclination
62.2031°
RAAN
351.7303°
Arg. of periapsis
317.4626°
True anomaly
72.43964°
Mean anomaly
69.1805°
Eccentric anomaly
70.8059°
Mean motion
3.53633 °/min
Orbital period
101.8 mins
BSTAR
0.00071141
Loading maneuver chart data...
Computing Atmospheric mass density...
Loading historical data...
Loading historical data...
Loading historical data...
Loading historical data...
Loading historical data...
Loading historical data...
Loading historical data...

Documentation

Showing up to 5 results
|